Station KLIH1 - 1615680 - Kahului, Kahului Harbor, HI Image indicating link to RSS feed of recent meteorological observations for station KLIH1


Conditions at KLIH1 as of
(12:54 am HAST)
1054 GMT on 04/16/2024:
     

Click on the graph icon in the table below to see a time series plot of the last five days of that observation.

5-day plot - Wind Direction Wind Direction (WDIR): SW ( 220 deg true )
5-day plot - Wind Speed Wind Speed (WSPD): 4.1 kts
5-day plot - Wind Gust Wind Gust (GST): 5.1 kts
5-day plot - Atmospheric Pressure Atmospheric Pressure (PRES):29.92 in
5-day plot - Air Temperature Air Temperature (ATMP): 69.1 °F
5-day plot - Water Temperature Water Temperature (WTMP): 76.5 °F
5-day plot - Wind Speed at 10 Meters Wind Speed at 10 meters (WSPD10M): 3.9 kts
5-day plot - Wind Speed at 20 Meters Wind Speed at 20 meters (WSPD20M): 5.8 kts
5-day plot -  Wind Speed, Wind Gust and Atmospheric Pressure Combined plot of Wind Speed, Gust, and Air Pressure
NOS Water Level Observation Network Water Level
Previous observations
TIME
(HAST)
5-day plot - Wind Direction
WDIR
 
5-day plot - Wind Speed
WSPD
kts
5-day plot - Wind Gust
GST
kts
5-day plot - Wave Height
WVHT
ft
5-day plot - Dominant Wave Period
DPD
sec
5-day plot - Average Wave Period
APD
sec
5-day plot - Mean Wave Direction
MWD
 
5-day plot - Atmospheric Pressure
PRES
in
5-day plot - Pressure Tendency
PTDY
in
5-day plot - Air Temperature
ATMP
°F
5-day plot - Water Temperature
WTMP
°F
5-day plot - Dew Point
DEWP
°F
5-day plot - Salinity
SAL
psu
5-day plot - Visibility
VIS
nmi
5-day plot - Tide (above MLLW)
TIDE
ft
2024-04-16 12:48 amSSW 5.1 7.0----29.92- 68.9 76.5----
2024-04-16 12:42 am S 5.1 7.0----29.92- 68.2 76.5----
2024-04-16 12:36 amSSE 5.1 7.0----29.92- 68.0 76.5----
2024-04-16 12:30 am S 2.9 4.1----29.92- 68.2 76.5----
2024-04-16 12:24 am S 2.9 2.9----29.92- 68.9 76.5----
2024-04-16 12:18 amWSW 1.9 2.9----29.92- 69.4 76.5----
2024-04-16 12:12 am SW 1.0 1.9----29.92- 69.3 76.5----
2024-04-16 12:06 amSSW 1.9 2.9----29.93- 69.3 76.6----
2024-04-16 12:00 am S 2.9 4.1----29.93+0.01 69.4 76.6----
2024-04-15 11:54 pmSSE 1.9 2.9----29.93- 70.0 76.5----
2024-04-15 11:48 pm S 2.9 2.9----29.93- 70.0 76.6----
2024-04-15 11:42 pm W 1.0 2.9----29.93- 70.3 76.6----
2024-04-15 11:36 pm NW 2.9 4.1----29.93- 70.5 76.5----
2024-04-15 11:30 pmWNW 4.1 4.1----29.93- 70.5 76.5----
2024-04-15 11:24 pmWNW 2.9 2.9----29.93- 70.5 76.5----
2024-04-15 11:18 pm W 1.9 2.9----29.93- 70.5 76.5----
2024-04-15 11:12 pm W 2.9 2.9----29.93- 70.5 76.6----
2024-04-15 11:06 pmWNW 1.9 4.1----29.93- 70.7 76.5----
2024-04-15 11:00 pm NW 2.9 5.1----29.93+0.04 70.7 76.3----
2024-04-15 10:54 pmWNW 4.1 5.1----29.93- 70.7 76.3----
2024-04-15 10:48 pm NW 2.9 4.1----29.93-- 76.3----
2024-04-15 10:42 pmWNW 1.9 2.9----29.93- 71.6 76.5----
2024-04-15 10:36 pmWNW 2.9 5.1----29.93- 71.4 76.6----
2024-04-15 10:30 pmWNW 2.9 5.1----29.93- 71.2 76.6----
2024-04-15 10:24 pm N 1.9 2.9----29.93- 72.5 76.6----
2024-04-15 10:18 pm N 1.9 4.1----29.93- 72.3 76.6----
2024-04-15 10:12 pmNNE 2.9 7.0----29.93- 73.2 76.6----
2024-04-15 10:06 pm N 5.1 6.0----29.93- 72.0 76.6----
2024-04-15 10:00 pm NW 5.1 5.1----29.93+0.05 71.4 76.6----
2024-04-15 09:54 pm SW 1.9 4.1----29.92- 72.1 76.6----
2024-04-15 09:48 pm S 1.9 4.1----29.92-------
2024-04-15 09:42 pmESE 2.9 5.1----29.92- 72.5 76.6----
2024-04-15 09:36 pm E 2.9 4.1----29.92- 72.7 76.6----
2024-04-15 09:30 pmESE 1.0 2.9----29.92- 72.1 76.6----
2024-04-15 09:24 pm S 1.9 2.9----29.92- 72.3 76.6----
2024-04-15 09:18 pm E 1.0 1.9----29.92-- 76.6----
2024-04-15 09:12 pm SE 1.0 1.9----29.92- 72.1 76.6----
2024-04-15 09:06 pm S 1.9 2.9----29.92- 72.1 76.6----
2024-04-15 09:00 pm S 1.9 2.9----29.92+0.06 72.5 76.6----
2024-04-15 08:54 pm SE 1.9 4.1----29.91- 72.5 76.6----
2024-04-15 08:48 pm S 2.9 4.1----29.91- 72.3 76.6----
2024-04-15 08:42 pm S 2.9 5.1----29.91- 72.7 76.6----
2024-04-15 08:36 pm S 4.1 5.1----29.91- 72.7 76.6----
2024-04-15 08:30 pm S 2.9 2.9----29.91- 73.4 76.6----
2024-04-15 08:24 pm S 1.9 2.9----29.90- 73.8 76.6----
2024-04-15 08:18 pm S 1.9 4.1----29.90-- 76.6----
2024-04-15 08:12 pmESE 2.9 5.1----29.90- 74.3 76.6----
2024-04-15 08:06 pmESE 1.9 4.1----29.90- 74.1 76.6----
2024-04-15 08:00 pmESE 4.1 5.1----29.90+0.06 73.8 76.6----
2024-04-15 07:54 pm NE 5.1 6.0----29.89- 74.7 76.6----
2024-04-15 07:48 pm N 5.1 6.0----29.89- 75.0 76.6----
2024-04-15 07:42 pm N 2.9 4.1----29.89- 74.8 76.6----
2024-04-15 07:36 pmNNE 1.0 1.0----29.89- 74.8 76.6----
2024-04-15 07:30 pm- 0.0 2.9----29.88- 75.2 76.6----
2024-04-15 07:24 pm E 2.9 5.1----29.88- 75.2 76.6----
2024-04-15 07:18 pm E 4.1 6.0----29.88-- 76.6----
2024-04-15 07:12 pm E 5.1 7.0----29.88- 75.7 76.8----
2024-04-15 07:06 pmESE 5.1 8.0----29.88- 76.1 76.8----
2024-04-15 07:00 pmESE 6.0 8.0----29.88+0.04 76.3 77.0----
2024-04-15 06:54 pm SE 5.1 8.9----29.87- 76.6 77.0----
2024-04-15 06:48 pm SE 7.0 8.9----29.87- 76.8 77.0----
2024-04-15 06:42 pm SE 6.0 8.9----29.87- 77.2 77.0----
2024-04-15 06:36 pmESE 5.1 7.0----29.87- 77.7 76.8----
2024-04-15 06:30 pmSSE 5.1 6.0----29.87- 77.5 76.8----
2024-04-15 06:24 pmESE 4.1 5.1----29.87- 77.7 76.6----
2024-04-15 06:18 pm SE 4.1 6.0----29.86- 77.5 76.6----
2024-04-15 06:12 pmENE 5.1 5.1----29.86- 77.7 76.6----
2024-04-15 06:06 pm E 1.9 1.9----29.86- 77.7 76.6----
2024-04-15 06:00 pm N 1.9 4.1----29.86+0.03 77.7 76.6----
2024-04-15 05:54 pm- 0.0 5.1----29.86- 77.9 76.6----
2024-04-15 05:48 pm NE 6.0 9.9----29.86- 77.7 76.6----
2024-04-15 05:42 pmNNE 5.1 8.9----29.85- 78.1 76.6----
2024-04-15 05:36 pm NE 8.0 12.0----29.85- 78.1 76.6----
2024-04-15 05:30 pmNNE 11.1 14.0----29.85- 78.1 76.6----
2024-04-15 05:24 pmNNE 12.0 13.0----29.85- 78.1 76.6----
2024-04-15 05:18 pmWSW 5.1 8.9----29.84- 79.2 76.6----
2024-04-15 05:12 pmSSW 7.0 14.0----29.84- 79.0 76.6----
2024-04-15 05:06 pmSSW 9.9 15.9----29.84- 79.3 76.6----
2024-04-15 05:00 pm S 13.0 15.9----29.83+0.00 78.6 76.6----
2024-04-15 04:54 pmSSW 12.0 17.1----29.83- 79.0 76.6----
2024-04-15 04:48 pm S 11.1 15.9----29.83- 78.8 76.6----
2024-04-15 04:42 pm S 12.0 18.1----29.83- 78.8 76.6----
2024-04-15 04:36 pmSSW 14.0 18.1----29.83- 78.8 76.8----
2024-04-15 04:30 pm S 15.0 19.0----29.83-- 76.8----
2024-04-15 04:24 pmSSW 14.0 18.1----29.83-- 76.8----
2024-04-15 04:18 pm S 12.0 15.9----29.83- 79.0 76.6----
2024-04-15 04:12 pmSSW 7.0 12.0----29.83- 79.7 76.6----
2024-04-15 04:06 pm E 8.0 12.0----29.83- 79.3 76.6----
2024-04-15 04:00 pmESE 2.9 5.1----29.83-0.03 79.7 76.6----
2024-04-15 03:54 pm- 0.0 2.9----29.83- 79.2 76.6----
2024-04-15 03:48 pm N 1.9 7.0----29.83- 79.0 76.6----
2024-04-15 03:42 pm N 9.9 12.0----29.84- 78.4 76.6----
2024-04-15 03:36 pm N 12.0 14.0----29.83- 77.9 76.5----
2024-04-15 03:30 pm W 5.1 11.1----29.83- 78.8 76.5----
2024-04-15 03:24 pmSSW 9.9 15.9----29.83- 79.0 76.5----
2024-04-15 03:18 pmSSW 15.9 21.0----29.83- 78.3 76.5----
2024-04-15 03:12 pm S 13.0 19.0----29.83- 78.4 76.5----
2024-04-15 03:06 pm S 15.0 21.0----29.83- 79.0 76.5----
2024-04-15 03:00 pm S 14.0 19.0----29.83-0.06- 76.5----
2024-04-15 02:54 pm S 13.0 18.1----29.83-- 76.5----
2024-04-15 02:48 pmSSW 14.0 22.0----29.83- 77.9 76.5----
2024-04-15 02:42 pm S 14.0 21.0----29.83- 77.7 76.5----
2024-04-15 02:36 pm S 15.0 20.0----29.83- 77.9 76.5----
2024-04-15 02:30 pm S 15.0 19.0----29.83- 77.7 76.5----
2024-04-15 02:24 pm S 19.0 22.9----29.83- 77.4 76.5----
2024-04-15 02:18 pm S 15.0 22.9----29.84-- 76.6----
2024-04-15 02:12 pm S 14.0 20.0----29.84-- 76.6----
2024-04-15 02:06 pm S 14.0 19.0----29.84-- 76.6----
2024-04-15 02:00 pm S 15.0 20.0----29.84-0.06 77.5 76.6----
2024-04-15 01:54 pmSSW 15.9 21.0----29.84- 77.4 76.6----
2024-04-15 01:48 pmSSW 15.0 21.0----29.84- 77.7 76.6----
2024-04-15 01:42 pm S 14.0 20.0----29.85- 77.5 76.6----
2024-04-15 01:36 pmSSW 15.0 20.0----29.85- 77.2 76.6----
2024-04-15 01:30 pmSSW 15.9 19.0----29.85- 76.8 76.6----
2024-04-15 01:24 pm S 13.0 22.9----29.85- 76.6 76.6----
2024-04-15 01:18 pm S 14.0 19.0----29.86- 76.8 76.6----
2024-04-15 01:12 pmSSW 15.0 21.0----29.86- 76.8 76.6----
2024-04-15 01:06 pm S 12.0 19.0----29.86- 77.0 76.6----
2024-04-15 01:00 pm S 11.1 18.1----29.86-0.04 76.6 76.6----
2024-04-15 12:54 pm S 15.9 20.0----29.87- 77.0 76.6----
2024-04-15 12:48 pm S 15.0 20.0----29.87- 76.5 76.6----
2024-04-15 12:42 pm S 15.0 22.9----29.87- 76.5 76.6----
2024-04-15 12:36 pm S 14.0 19.0----29.88- 77.0 76.6----
2024-04-15 12:30 pm NE 2.9 6.0----29.88-- 76.6----
2024-04-15 12:24 pmENE 6.0 7.0----29.88-- 76.6----
2024-04-15 12:18 pmENE 5.1 5.1----29.88- 77.5 76.6----
2024-04-15 12:12 pm NE 1.9 2.9----29.89- 77.5 76.6----
2024-04-15 12:06 pmNNE 1.9 5.1----29.89- 76.8 76.6----
2024-04-15 12:00 pm N 4.1 8.9----29.89-0.02 76.8 76.6----
2024-04-15 11:54 am N 8.0 8.9----29.89- 76.3 76.6----
2024-04-15 11:48 am N 5.1 6.0----29.90- 76.5 76.6----
2024-04-15 11:42 amNNW 4.1 7.0----29.90- 76.5 76.6----
2024-04-15 11:36 am N 8.0 11.1----29.90- 76.1 76.6----
2024-04-15 11:30 am NW 6.0 8.0----29.90- 76.6 76.6----
2024-04-15 11:24 amNNW 6.0 8.0----29.90- 76.6 76.5----
2024-04-15 11:18 amNNW 4.1 6.0------ 76.3 76.5----
2024-04-15 11:12 amNNE 2.9 8.0------ 76.6 76.5----
2024-04-15 11:06 amNNW 6.0 8.9------ 76.1 76.5----
2024-04-15 11:00 am W 2.9 8.9----29.90+0.00 77.0 76.5----
2024-04-15 10:54 am SW 5.1 8.0----29.90- 75.6 76.5----
2024-04-15 10:48 am N 5.1 8.9----29.90- 74.8 76.5----
2024-04-15 10:42 amNNW 8.0 9.9----29.91- 75.0 76.5----
2024-04-15 10:36 am N 6.0 8.9----29.90- 74.8 76.5----
2024-04-15 10:30 amNNW 8.0 8.9----29.90- 75.0 76.5----
2024-04-15 10:24 amNNW 5.1 7.0----29.90- 75.2 76.5----
2024-04-15 10:18 amNNW 5.1 6.0----29.91- 75.0 76.5----
2024-04-15 10:12 amWNW 2.9 8.0----29.91- 75.7 76.5----
2024-04-15 10:06 am SW 6.0 8.9----29.91- 75.6 76.5----
2024-04-15 10:00 amSSW 8.0 11.1----29.90+0.02 75.2 76.5----
2024-04-15 09:54 amSSW 8.0 11.1----29.91- 75.2 76.5----
2024-04-15 09:48 amSSW 9.9 12.0----29.90- 74.7 76.5----
2024-04-15 09:42 amSSW 7.0 12.0----29.91- 74.3 76.5----
2024-04-15 09:36 am S 8.9 12.0----29.91- 73.9 76.5----
2024-04-15 09:30 am S 7.0 12.0----29.91- 73.6 76.5----
2024-04-15 09:24 amSSW 7.0 11.1----29.91- 73.2 76.5----
2024-04-15 09:18 am S 7.0 12.0----29.91- 72.9 76.5----
2024-04-15 09:12 am S 11.1 15.0----29.91- 72.7 76.5----
2024-04-15 09:06 amSSW 9.9 15.0----29.92- 73.0 76.5----
2024-04-15 09:00 am S 11.1 15.9----29.91+0.03 73.2 76.5----
2024-04-15 08:54 amSSW 8.0 15.9----29.91- 73.4 76.5----
2024-04-15 08:48 am S 9.9 15.9----29.91- 73.2 76.5----
2024-04-15 08:42 am SW 7.0 14.0----29.91- 73.6 76.5----
2024-04-15 08:36 amSSW 5.1 11.1----29.91- 73.9 76.5----
2024-04-15 08:30 amSSW 9.9 13.0----29.91- 74.1 76.5----
2024-04-15 08:24 amSSW 8.0 12.0----29.90- 74.1 76.5----
2024-04-15 08:18 amSSW 8.9 12.0----29.90- 73.9 76.5----
2024-04-15 08:12 am S 8.0 13.0----29.90- 74.1 76.5----
2024-04-15 08:06 am S 8.9 12.0----29.90- 74.1 76.5----
2024-04-15 08:00 am S 8.9 12.0----29.90+0.04 74.1 76.5----
2024-04-15 07:54 am S 12.0 15.9----29.90- 74.1 76.5----
2024-04-15 07:48 am S 11.1 13.0----29.90- 74.3 76.5----
2024-04-15 07:42 am S 9.9 15.9----29.90- 74.5 76.5----
2024-04-15 07:36 am S 9.9 18.1----29.89- 73.9 76.5----
2024-04-15 07:30 amSSW 9.9 14.0----29.89- 73.8 76.5----
2024-04-15 07:24 amSSW 8.9 15.0----29.89- 73.8 76.5----
2024-04-15 07:18 amSSW 11.1 15.0----29.89- 73.4 76.5----
2024-04-15 07:12 amSSW 12.0 15.0----29.88- 73.2 76.5----
2024-04-15 07:06 am S 9.9 15.0----29.88- 73.0 76.5----
2024-04-15 07:00 am S 9.9 14.0----29.88+0.03 73.0 76.5----
2024-04-15 06:54 amSSW 11.1 13.0----29.88- 72.9 76.5----
2024-04-15 06:48 amSSW 8.9 14.0----29.88- 72.7 76.5----
2024-04-15 06:42 amSSW 11.1 15.0----29.88- 72.9 76.5----
2024-04-15 06:36 amSSW 11.1 15.0----29.88- 73.0 76.5----
2024-04-15 06:30 amSSW 9.9 14.0----29.88- 73.2 76.5----
2024-04-15 06:24 am S 9.9 13.0----29.88- 72.9 76.5----
2024-04-15 06:18 am S 9.9 14.0----29.88- 72.7 76.5----
2024-04-15 06:12 amSSW 8.0 12.0----29.88- 72.7 76.5----
2024-04-15 06:06 amSSW 9.9 15.0----29.88- 72.7 76.5----
2024-04-15 06:00 amSSW 12.0 17.1----29.88+0.03 73.2 76.5----
2024-04-15 05:54 amSSW 13.0 17.1----29.88- 72.9 76.5----
2024-04-15 05:48 amSSW 11.1 15.9----29.87- 72.5 76.5----
2024-04-15 05:42 amSSW 12.0 15.0----29.87- 72.3 76.5----
2024-04-15 05:36 amSSW 12.0 17.1----29.87- 72.3 76.5----
2024-04-15 05:30 amSSW 13.0 19.0----29.86- 72.5 76.5----
2024-04-15 05:24 amSSW 13.0 18.1----29.86- 72.5 76.5----
2024-04-15 05:18 amSSW 14.0 18.1----29.86- 72.5 76.5----
2024-04-15 05:12 amSSW 14.0 20.0----29.86- 72.5 76.5----
2024-04-15 05:06 amSSW 15.9 19.0----29.86- 72.5 76.5----
2024-04-15 05:00 amSSW 12.0 19.0----29.86+0.00 72.5 76.5----
2024-04-15 04:54 amSSW 15.0 20.0----29.85- 73.0 76.5----
2024-04-15 04:48 amSSW 12.0 17.1----29.85- 72.7 76.5----
2024-04-15 04:42 amSSW 13.0 15.9----29.85- 72.9 76.5----
2024-04-15 04:36 amSSW 9.9 15.9----29.85- 72.3 76.5----
2024-04-15 04:30 am SW 8.9 14.0----29.85-- 76.5----
2024-04-15 04:24 am SW 8.9 12.0----29.85-- 76.5----
2024-04-15 04:18 am SW 6.0 8.9----29.85- 72.1 76.5----
2024-04-15 04:12 amSSW 5.1 8.9----29.85- 72.0 76.5----
2024-04-15 04:06 am W 7.0 8.9----29.85- 72.0 76.5----
2024-04-15 04:00 amWNW 6.0 8.9----29.85-0.01 71.6 76.5----
2024-04-15 03:54 am W 5.1 17.1----29.86- 71.4 76.5----
2024-04-15 03:48 amNNW 13.0 15.9----29.86-- 76.5----
2024-04-15 03:42 am NW 8.9 11.1----29.85- 70.0 76.5----
2024-04-15 03:36 amWNW 7.0 8.9----29.85- 69.4 76.5----
2024-04-15 03:30 am W 4.1 6.0----29.84- 69.4 76.5----
2024-04-15 03:24 amWNW 6.0 8.9----29.85- 69.4 76.5----
2024-04-15 03:18 am W 5.1 7.0----29.84- 70.0 76.5----
2024-04-15 03:12 amSSE 5.1 8.9----29.84- 70.3 76.5----
2024-04-15 03:06 am S 8.0 12.0----29.85- 70.3 76.5----
2024-04-15 03:00 am S 12.0 17.1----29.85-0.04 70.3 76.5----
2024-04-15 02:54 am S 12.0 17.1----29.85- 69.8 76.5----
2024-04-15 02:48 am- 0.0 4.1----29.86- 69.3 76.3----
2024-04-15 02:42 am S 5.1 8.0----29.87- 69.1 76.3----
2024-04-15 02:36 am W 7.0 12.0----29.88- 69.4 76.5----
2024-04-15 02:30 am W 8.0 12.0----29.87- 70.0 76.3----
2024-04-15 02:24 am SW 11.1 18.1----29.88- 70.0 76.5----
2024-04-15 02:18 am W 11.1 15.0----29.87- 70.0 76.5----
2024-04-15 02:12 am SW 9.9 14.0----29.86- 70.9 76.5----
2024-04-15 02:06 amSSW 8.0 13.0----29.86- 71.1 76.5----
2024-04-15 02:00 am SW 8.0 12.0----29.86-0.06 71.1 76.5----
2024-04-15 01:54 am SW 8.0 13.0----29.86- 71.1 76.5----
2024-04-15 01:48 amSSW 11.1 15.9----29.87- 71.2 76.5----
2024-04-15 01:42 am SW 8.9 13.0----29.88- 71.2 76.5----
2024-04-15 01:36 amWSW 9.9 12.0----29.87- 71.2 76.5----
2024-04-15 01:30 am W 8.9 12.0----29.88- 71.2 76.5----
2024-04-15 01:24 amWSW 8.9 11.1----29.88- 71.2 76.5----
2024-04-15 01:18 am SW 11.1 17.1----29.87- 71.1 76.3----
2024-04-15 01:12 am SW 13.0 18.1----29.87- 71.1 76.5----
2024-04-15 01:06 am SW 13.0 20.0----29.87- 71.2 76.3----
2024-04-15 01:00 am SW 14.0 20.0----29.87-0.06 71.2 76.3----
2024-04-15 12:54 am SW 15.0 20.0----29.87- 71.4 76.5----